{"data":{"norad_id":82162,"intl_designator":"","name":"UNKNOWN","alt_names":[],"object_type":"UNKNOWN","status":"UNKNOWN","operator":null,"country":null,"launch_date":null,"launch_site_code":null,"launch_vehicle":null,"mission":null,"orbit_class":"UNKNOWN","rcs_meters":null,"size_class":null,"mass_kg":null,"dimensions":null,"purposes":[],"wikipedia_slug":null,"has_3d_model":false,"image_url":null,"decayed_at":null,"tle_current":{"epoch":"2026-09-17T07:32:38.085216Z","epoch_age_seconds":289603,"freshness":"STALE","line1":"1 82162U          26260.31432969  .00002143  00000+0  31339-2 0  9992","line2":"2 82162 100.4512 205.9892 0051402 284.5740  74.9698 13.55477020542021","mean_motion":13.5547702,"eccentricity":0.0051402,"inclination_deg":100.4512,"raan_deg":205.9892,"arg_perigee_deg":284.574,"mean_anomaly_deg":74.9698,"bstar":0.0031339,"rev_number":54202,"period_min":106.23566307306,"perigee_km":1013.9820215509,"apogee_km":1090.3686042525,"semimajor_km":7430.3123129017,"source":"CELESTRAK","updated_at":"2026-09-20T09:00:32.430568Z"}}}